Tucson, AZ

2:55 AM MST on August 23, 2019 (GMT -0700)
Tucson International

Weather History for KTUS - May, 2019

Change the Weather History Date:

Friday, May 24, 2019

  Actual Average Record
Temperature  
Mean Temperature 68 °F 78 °F  
Max Temperature 87 °F 94 °F 104 °F (1983)
Min Temperature 49 °F 63 °F 42 °F (1909)
Degree Days  
Heating Degree Days 0 0  
Month to date heating degree days 1 3  
Since 1 July heating degree days 1409 1509  
Cooling Degree Days 3 14  
Month to date cooling degree days 140 245  
Year to date cooling degree days 320 399  
Growing Degree Days 18 (Base 50)    
Moisture  
Dew Point 24 °F    
Average Humidity 20    
Maximum Humidity 41    
Minimum Humidity 4    
Precipitation  
Precipitation 0.00 in 0.00 in 0.50 in (1967)
Month to date precipitation 1.22 0.17  
Year to date precipitation 5.03 3.01  
Sea Level Pressure  
Sea Level Pressure 29.83 in    
Wind  
Wind Speed 6 mph (SSW)    
Max Wind Speed 14 mph    
Max Gust Speed 22 mph    
Visibility 10 miles    
Events      
T = Trace of Precipitation, MM = Missing Value Source: NWS Daily Summary

Daily Weather History Graph

Daily Weather History Graph

Search for Another Location

Airport or City:

Astronomy

May. 24, 2019 Rise Set
Actual Time 5:21 AM MST 7:20 PM MST
Civil Twilight 4:53 AM MST 7:47 PM MST
Nautical Twilight 4:20 AM MST 8:21 PM MST
Astronomical Twilight 3:44 AM MST 8:56 PM MST
Moon No Moon Rise 10:23 AM MST (5/24)
Length of Visible Light 14h 54m
Length of Day
13h 59m
Waning Gibbous, 68% of the Moon is Illuminated
May 24
Waning Gibbous
May 26
Last Quarter
Jun 3
New
Jun 9
First Quarter
Jun 17
Full

Hourly Weather History & Observations

Time (MST) Temp. Dew Point Humidity Pressure Visibility Wind Dir Wind Speed Gust Speed Precip Events Conditions
12:53 AM 57.9 °F 28.0 °F 32% 29.88 in 10.0 mi SSE 3.5 mph - N/A   Clear
1:53 AM 57.0 °F 27.0 °F 32% 29.87 in 10.0 mi SSE 3.5 mph - N/A   Clear
2:53 AM 54.0 °F 28.0 °F 37% 29.88 in 10.0 mi SE 6.9 mph - N/A   Clear
3:53 AM 53.1 °F 28.0 °F 38% 29.88 in 10.0 mi SE 4.6 mph - N/A   Clear
4:53 AM 51.1 °F 27.0 °F 39% 29.88 in 10.0 mi SSE 6.9 mph - N/A   Clear
5:53 AM 51.1 °F 28.0 °F 41% 29.90 in 10.0 mi SE 6.9 mph - N/A   Clear
6:53 AM 55.0 °F 28.0 °F 35% 29.91 in 10.0 mi SSE 6.9 mph - N/A   Clear
7:53 AM 61.0 °F 28.9 °F 30% 29.90 in 10.0 mi SSE 5.8 mph - N/A   Clear
8:53 AM 68.0 °F 28.9 °F 23% 29.90 in 10.0 mi South 3.5 mph - N/A   Clear
9:53 AM 73.9 °F 28.9 °F 19% 29.88 in 10.0 mi Calm Calm - N/A   Clear
10:53 AM 77.0 °F 26.1 °F 15% 29.86 in 10.0 mi Variable 4.6 mph - N/A   Clear
11:53 AM 80.1 °F 21.9 °F 12% 29.84 in 10.0 mi West 5.8 mph - N/A   Clear
12:53 PM 82.0 °F 19.9 °F 10% 29.82 in 10.0 mi Variable 3.5 mph - N/A   Clear
1:46 PM 84.9 °F 19.0 °F 9% 29.91 in 10.0 mi NNW 9.2 mph - N/A   Clear
1:53 PM 82.9 °F 18.0 °F 9% 29.80 in 10.0 mi Variable 3.5 mph - N/A   Clear
2:53 PM 84.9 °F 19.9 °F 9% 29.78 in 10.0 mi NW 5.8 mph - N/A   Clear
3:53 PM 86.0 °F 21.9 °F 10% 29.75 in 10.0 mi Variable 3.5 mph - N/A   Clear
4:53 PM 86.0 °F 19.9 °F 9% 29.74 in 10.0 mi Variable 4.6 mph 17.3 mph N/A   Clear
5:53 PM 84.9 °F 19.9 °F 9% 29.74 in 10.0 mi WNW 11.5 mph - N/A   Clear
6:53 PM 82.9 °F 19.9 °F 10% 29.74 in 10.0 mi WNW 10.4 mph - N/A   Clear
7:53 PM 78.1 °F 23.0 °F 13% 29.75 in 10.0 mi NNW 5.8 mph - N/A   Clear
8:53 PM 75.0 °F 24.1 °F 15% 29.76 in 10.0 mi NNW 6.9 mph - N/A   Clear
9:53 PM 69.1 °F 26.1 °F 20% 29.78 in 10.0 mi WSW 5.8 mph - N/A   Clear
10:53 PM 68.0 °F 24.1 °F 19% 29.78 in 10.0 mi SSW 4.6 mph - N/A   Clear
11:53 PM 64.9 °F 24.1 °F 21% 29.78 in 10.0 mi SW 6.9 mph - N/A   Clear